Weather History for Gwinner, ND

Change the Weather History Date:

Friday, September 13, 2013

  Actual Average (KP67) Record (KP67)
Temperature  
Mean Temperature 62 °F -  
Max Temperature 77 °F 73 °F 84 °F (1997)
Min Temperature 46 °F 47 °F 37 °F (1996)
Degree Days  
Heating Degree Days 4    
Growing Degree Days 12 (Base 50)    
Moisture  
Dew Point 52 °F    
Average Humidity 75    
Maximum Humidity 100    
Minimum Humidity 39    
Precipitation  
Precipitation 0.00 in - - ()
Sea Level Pressure  
Sea Level Pressure 30.14 in    
Wind  
Wind Speed 4 mph (South)    
Max Wind Speed 13 mph    
Max Gust Speed 22 mph    
Visibility 9 miles    
Events      
Averages and records for this station are not official NWS values.
T = Trace of Precipitation, MM = Missing Value Source: NWS Daily Summary

Daily Weather History Graph

Daily Weather History Graph

Search for Another Location

Airport:

Trip Planner

Search our weather history database for the weather conditions in past years. The results will help you decide how hot, cold, wet, or windy it might be!

Date:

Astronomy

Sep. 13, 2013 Rise Set
Actual Time 7:06 AM CDT 7:45 PM CDT
Civil Twilight 6:36 AM CDT 8:15 PM CDT
Nautical Twilight 6:00 AM CDT 8:51 PM CDT
Astronomical Twilight 5:22 AM CDT 9:28 PM CDT
Moon 3:50 PM CDT (9/13) 12:22 AM CDT (9/13)
Length of Visible Light 13h 39m
Length of Day
12h 38m
First Quarter, 61% of the Moon is Illuminated
Sep 13
First Quarter
Sep 19
Full
Sep 26
Last Quarter
Oct 4
New
Oct 11
First Quarter

Hourly Weather History & Observations

Time (CDT) Temp. Windchill Dew Point Humidity Pressure Visibility Wind Dir Wind Speed Gust Speed Precip Events Conditions
12:15 AM 51.8 °F - 51.8 °F 100% 30.26 in 10.0 mi Calm Calm - 0.00 in   Clear
12:35 AM 51.8 °F - 51.8 °F 100% 30.25 in 10.0 mi Calm Calm - 0.00 in   Clear
12:55 AM 51.8 °F - 51.8 °F 100% 30.25 in 10.0 mi Calm Calm - 0.00 in   Clear
1:15 AM 51.8 °F - 51.8 °F 100% 30.25 in 10.0 mi Calm Calm - 0.00 in   Clear
1:35 AM 51.8 °F - 51.8 °F 100% 30.25 in 10.0 mi Calm Calm - 0.00 in   Clear
1:55 AM 50.0 °F - 50.0 °F 100% 30.25 in 9.0 mi Calm Calm - 0.00 in   Clear
2:15 AM 50.0 °F - 50.0 °F 100% 30.25 in 8.0 mi Calm Calm - 0.00 in   Clear
2:35 AM 48.2 °F - 48.2 °F 100% 30.24 in 1.2 mi Calm Calm - 0.00 in   Clear
2:55 AM 50.0 °F - 50.0 °F 100% 30.24 in 0.8 mi Calm Calm - 0.00 in   Unknown
3:15 AM 50.0 °F - 50.0 °F 100% 30.24 in 10.0 mi Calm Calm - 0.00 in   Clear
3:35 AM 50.0 °F - 50.0 °F 100% 30.24 in 5.0 mi Calm Calm - 0.00 in   Clear
3:55 AM 48.2 °F - 48.2 °F 100% 30.24 in 0.8 mi Calm Calm - 0.00 in   Unknown
4:15 AM 48.2 °F - 48.2 °F 100% 30.24 in 8.0 mi Calm Calm - 0.00 in   Clear
4:35 AM 48.2 °F - 48.2 °F 100% 30.24 in 9.0 mi Calm Calm - 0.00 in   Clear
4:55 AM 48.2 °F - 48.2 °F 100% 30.24 in 10.0 mi Calm Calm - 0.00 in   Clear
5:15 AM 48.2 °F - 48.2 °F 100% 30.24 in 1.8 mi Calm Calm - 0.00 in   Clear
5:35 AM 46.4 °F - 46.4 °F 100% 30.24 in 9.0 mi Calm Calm - 0.00 in   Clear
5:55 AM 46.4 °F 44.3 °F 46.4 °F 100% 30.24 in 1.2 mi West 4.6 mph - 0.00 in   Clear
6:15 AM 46.4 °F 43.5 °F 46.4 °F 100% 30.23 in 2.5 mi SW 5.8 mph - 0.00 in   Clear
6:35 AM 46.4 °F 43.5 °F 46.4 °F 100% 30.24 in 9.0 mi WSW 5.8 mph - 0.00 in   Clear
6:55 AM 46.4 °F 45.2 °F 46.4 °F 100% 30.23 in 9.0 mi WSW 3.5 mph - 0.00 in   Clear
7:15 AM 46.4 °F 45.2 °F 46.4 °F 100% 30.24 in 9.0 mi SW 3.5 mph - 0.00 in   Clear
7:35 AM 48.2 °F - 48.2 °F 100% 30.23 in 7.0 mi Calm Calm - 0.00 in   Clear
7:55 AM 48.2 °F - 48.2 °F 100% 30.23 in 5.0 mi Calm Calm - 0.00 in   Clear
8:15 AM 51.8 °F - 51.8 °F 100% 30.23 in 3.0 mi SW 4.6 mph - 0.00 in   Clear
8:35 AM 55.4 °F - 55.4 °F 100% 30.22 in 10.0 mi SW 6.9 mph - 0.00 in   Clear
8:55 AM 55.4 °F - 55.4 °F 100% 30.22 in 10.0 mi SW 8.1 mph - 0.00 in   Clear
9:15 AM 57.2 °F - 55.4 °F 94% 30.22 in 10.0 mi SSW 8.1 mph - 0.00 in   Clear
9:35 AM 60.8 °F - 55.4 °F 82% 30.22 in 9.0 mi SSW 9.2 mph - 0.00 in   Clear
9:55 AM 62.6 °F - 53.6 °F 72% 30.22 in 10.0 mi SSW 11.5 mph - 0.00 in   Clear
10:15 AM 64.4 °F - 53.6 °F 68% 30.21 in 9.0 mi SSW 9.2 mph - 0.00 in   Clear
10:35 AM 66.2 °F - 53.6 °F 64% 30.21 in 9.0 mi South 11.5 mph - 0.00 in   Clear
10:55 AM 66.2 °F - 53.6 °F 64% 30.21 in 10.0 mi South 12.7 mph - 0.00 in   Clear
11:15 AM 69.8 °F - 51.8 °F 53% 30.20 in 9.0 mi SSW 11.5 mph - 0.00 in   Clear
11:35 AM 69.8 °F - 51.8 °F 53% 30.20 in 10.0 mi South 12.7 mph - 0.00 in   Clear
11:55 AM 71.6 °F - 51.8 °F 50% 30.19 in 10.0 mi SSW 11.5 mph - 0.00 in   Clear
12:15 PM 71.6 °F - 51.8 °F 50% 30.18 in 10.0 mi South 11.5 mph - 0.00 in   Clear
12:35 PM 73.4 °F - 51.8 °F 47% 30.17 in 10.0 mi SSW 10.4 mph - 0.00 in   Clear
12:55 PM 73.4 °F - 51.8 °F 47% 30.16 in 10.0 mi SSW 9.2 mph - 0.00 in   Clear
1:15 PM 73.4 °F - 51.8 °F 47% 30.15 in 10.0 mi SSW 11.5 mph - 0.00 in   Clear
1:35 PM 75.2 °F - 51.8 °F 44% 30.14 in 10.0 mi South 12.7 mph - 0.00 in   Clear
1:55 PM 75.2 °F - 51.8 °F 44% 30.14 in 9.0 mi South 11.5 mph 17.3 mph 0.00 in   Clear
2:15 PM 75.2 °F - 51.8 °F 44% 30.12 in 9.0 mi SSW 9.2 mph - 0.00 in   Clear
2:35 PM 75.2 °F - 51.8 °F 44% 30.11 in 10.0 mi South 10.4 mph 16.1 mph 0.00 in   Clear
2:55 PM 77.0 °F - 51.8 °F 41% 30.10 in 10.0 mi SSW 11.5 mph - 0.00 in   Clear
3:15 PM 77.0 °F - 50.0 °F 39% 30.09 in 10.0 mi South 12.7 mph - 0.00 in   Clear
3:35 PM 77.0 °F - 51.8 °F 41% 30.09 in 10.0 mi South 8.1 mph 17.3 mph 0.00 in   Clear
3:55 PM 77.0 °F - 51.8 °F 41% 30.08 in 10.0 mi South 11.5 mph 21.9 mph 0.00 in   Clear
4:15 PM 77.0 °F - 51.8 °F 41% 30.07 in 9.0 mi South 10.4 mph - 0.00 in   Clear
4:35 PM 77.0 °F - 51.8 °F 41% 30.06 in 10.0 mi SSW 10.4 mph - 0.00 in   Clear
4:55 PM 77.0 °F - 51.8 °F 41% 30.06 in 10.0 mi South 9.2 mph - 0.00 in   Clear
5:15 PM 77.0 °F - 51.8 °F 41% 30.05 in 10.0 mi SSW 9.2 mph - 0.00 in   Clear
5:35 PM 77.0 °F - 51.8 °F 41% 30.04 in 9.0 mi SSW 11.5 mph - 0.00 in   Clear
5:55 PM 77.0 °F - 51.8 °F 41% 30.03 in 9.0 mi South 10.4 mph - 0.00 in   Clear
6:15 PM 75.2 °F - 51.8 °F 44% 30.03 in 9.0 mi South 6.9 mph - 0.00 in   Clear
6:35 PM 73.4 °F - 51.8 °F 47% 30.02 in 10.0 mi South 9.2 mph - 0.00 in   Clear
6:55 PM 73.4 °F - 53.6 °F 50% 30.02 in 10.0 mi SSE 6.9 mph - 0.00 in   Clear
7:15 PM 69.8 °F - 53.6 °F 56% 30.01 in 10.0 mi SSE 6.9 mph - 0.00 in   Clear
7:35 PM 66.2 °F - 53.6 °F 64% 30.01 in 10.0 mi South 6.9 mph - 0.00 in   Clear
7:55 PM 64.4 °F - 53.6 °F 68% 30.01 in 10.0 mi SSE 6.9 mph - 0.00 in   Clear
8:15 PM 62.6 °F - 53.6 °F 72% 30.01 in 10.0 mi SSE 6.9 mph - 0.00 in   Clear
8:35 PM 60.8 °F - 55.4 °F 82% 30.01 in 10.0 mi SSE 6.9 mph - 0.00 in   Clear
8:55 PM 60.8 °F - 55.4 °F 82% 30.00 in 10.0 mi SSE 8.1 mph - 0.00 in   Clear
9:15 PM 60.8 °F - 53.6 °F 77% 30.00 in 10.0 mi South 6.9 mph - 0.00 in   Clear
9:35 PM 60.8 °F - 53.6 °F 77% 29.99 in 10.0 mi South 9.2 mph - 0.00 in   Clear
9:55 PM 60.8 °F - 53.6 °F 77% 29.99 in 10.0 mi South 8.1 mph - 0.00 in   Clear
10:15 PM 60.8 °F - 53.6 °F 77% 29.98 in 10.0 mi South 6.9 mph - 0.00 in   Clear
10:35 PM 57.2 °F - 53.6 °F 88% 29.98 in 10.0 mi South 6.9 mph - 0.00 in   Clear
10:55 PM 57.2 °F - 53.6 °F 88% 29.98 in 10.0 mi South 6.9 mph - 0.00 in   Clear
11:15 PM 57.2 °F - 53.6 °F 88% 29.98 in 10.0 mi South 6.9 mph - 0.00 in   Clear
11:35 PM 57.2 °F - 53.6 °F 88% 29.98 in 10.0 mi South 5.8 mph - 0.00 in   Clear
11:55 PM 55.4 °F - 53.6 °F 94% 29.97 in 10.0 mi South 6.9 mph - 0.00 in   Clear